This is the latest recevied weather packets stored in our database for station/object WX5KDM. If no packets are shown the sender has not sent any weather packets the latest 10 day(s).
| Time | Temp. | Humidity | Pressure | Rain* | Wind** | Luminosity | Snow |
|---|---|---|---|---|---|---|---|
| 1788292582 | 36.67° C | 44% | 1017.6 hPa | 0 mm | - | - | - |
| 1788292263 | 36.67° C | 45% | 1017.7 hPa | 0 mm | - | - | - |
| 1788291958 | 36.67° C | 44% | 1017.9 hPa | 0 mm | - | - | - |
| 1788291654 | 36.11° C | 46% | 1017.8 hPa | 0 mm | - | - | - |
| 1788291354 | 35° C | 47% | 1017.9 hPa | 0 mm | - | - | - |
| 1788291049 | 35° C | 49% | 1018 hPa | 0 mm | - | - | - |
| 1788290743 | 35.56° C | 47% | 1018 hPa | 0 mm | - | - | - |
| 1788290439 | 36.11° C | 47% | 1018 hPa | 0 mm | - | - | - |
| 1788290135 | 36.11° C | 47% | 1018 hPa | 0 mm | - | - | - |
| 1788289831 | 35.56° C | 47% | 1018.3 hPa | 0 mm | - | - | - |
| 1788289526 | 36.11° C | 47% | 1018 hPa | 0 mm | - | - | - |
| 1788289226 | 35.56° C | 47% | 1018.3 hPa | 0 mm | - | - | - |
| 1788288924 | 35° C | 49% | 1018.4 hPa | 0 mm | - | - | - |
| 1788288623 | 35.56° C | 49% | 1018.6 hPa | 0 mm | - | - | - |
| 1788288320 | 36.11° C | 49% | 1018.5 hPa | 0 mm | - | - | - |
| 1788288015 | 36.67° C | 45% | 1018.5 hPa | 0 mm | - | - | - |
| 1788287715 | 36.11° C | 47% | 1018.7 hPa | 0 mm | - | - | - |
| 1788287411 | 35.56° C | 48% | 1018.8 hPa | 0 mm | - | - | - |
| 1788287107 | 35.56° C | 51% | 1018.9 hPa | 0 mm | - | - | - |
| 1788286807 | 35.56° C | 48% | 1018.8 hPa | 0 mm | - | - | - |
| 1788286501 | 35.56° C | 49% | 1018.9 hPa | 0 mm | - | - | - |
| 1788286199 | 36.11° C | 48% | 1018.9 hPa | 0 mm | - | - | - |
| 1788285899 | 35.56° C | 47% | 1018.9 hPa | 0 mm | - | - | - |
| 1788285604 | 35° C | 49% | 1019.1 hPa | 0 mm | - | - | - |
| 1788285292 | 35° C | 50% | 1019 hPa | 0 mm | - | - | - |
* Rain latest hour (hover to see other rain measurements)
** Current wind speed in m/s (hover to see current wind gust speed)